User: anonymous   Login
Location: Unspecified
(0.0000°N, 0.0000°E)
Time: 05:44:10
(UTC+00:00)
Language:

STARLINK-35394 - Orbit

View from above orbital plane
View from above orbital plane
View from above satellite
View from above satellite

Ground track
Ground track

The orbit is defined by the following mean orbital elements,

1 66023U          26145.27292962 +.00000000 +00000-0 +84193-3 0 00005
2 66023  53.1583 107.9813 0001248  95.2552 264.8591 15.30200205    09
Epoch (UTC): 25 May 2026 06:33:01
Eccentricity: 0.0001248
inclination: 53.1583°
perigee height: 474 km
apogee height: 476 km
right ascension of ascending node: 107.9813°
argument of perigee: 95.2552°
revolutions per day: 15.30200205
mean anomaly at epoch: 264.8591°

The dashed part of the orbit path shows where the satellite is in the earth's shadow,  

DLR